Find Starlink 1269

NORAD ID: 45197 Int'l Des: 2020-012 Owner: SPXS Country: US Constellation: starlink operational
LEOCIRCULAR

Live-Position

3D-Globus wird geladen...

Über Starlink 1269

Beschreibung wird geladen...

Nächste Überflüge

Passes for default location (London). Set your location on the main map for personalized predictions.

Höhenverlauf

Loading altitude history...

Zweizeiliger Elementsatz

1 45197U 20012V 26125.35620457 .00018851 00000-0 60626-3 0 9995
2 45197 53.1561 136.1624 0002895 36.9787 323.1413 15.32298942343592
Epoch: 5. Mai 2026 • Age: 14 hours

Aktueller Status

Höhe 480.1 km
Geschwindigkeit 7.63 km/s
Subsatellitenpunkt -35.53°S, 99.03°W
Startdatum 17. Feb. 2020
Alter 6.2 years
Typ internet

Technische Details

Klassifizierung Payload
Masse 260.00 kg
Trockenmasse 248.00 kg
Gesamtmasse 260.00 kg
Länge 0.20 m
Durchmesser 2.80 m
Spannweite 9.00 m
Form Box + pan
Hersteller SPXS
Bus-Typ Starlink
Phasenstatus In Orbit
Besitzer/Staat SPXS/US

Most Searched